Cloud_Cover
100 78 31 17 15 2 0 0 0 0 0 0 0 0 0 0 0 0 0 0 0 0 0 0 0 5 5 0 0 0 0 89
4 12 26 59 46 6 3 6 5 0 0 0 0 0 0 0 0 0 0 0 0 0 0 0 0 86 36 0 5 0 5 5
5 0 4 54 66 15 5 5 6 5 5 0 61 0 0 3 1 100 100 5 1 0 3 6 14 5 5 5 4 5 5 5
5 2 2 12 98 24 38 48 40 36 5 3 0 0 0 0 0 8 82 56 5 1 2 24 9 5 5 5 3 5 5 74
5 72 10 0 11 28 5 5 76 22 6 5 0 0 0 0 0 0 0 0 0 0 0 0 0 0 0 0 2 5 3 13
100 17 100 96 78 93 5 5 10 6 0 5 5 0 0 0 0 0 0 0 0 0 0 0 0 0 0 5 63 90 64 54
0 86 5 93 82 34 5 1 5 5 2 5 5 4 3 0 0 0 0 0 0 0 0 0 0 0 0 3 5 12 77 94
3 0 4 4 69 7 5 5 5 5 5 5 5 5 4 4 0 0 0 0 0 0 0 0 0 2 5 5 5 10 5 18
5 4 0 0 0 5 45 100 100 100 85 5 8 5 5 5 5 2 0 0 0 0 0 0 0 0 5 5 5 10 39 99
5 5 4 0 0 0 93 97 51 6 5 3 5 5 5 5 3 5 5 2 0 0 1 0 1 1 5 100 99 87 79 100
100 31 5 1 0 0 2 5 5 5 0 1 91 93 7 5 5 5 5 2 5 5 6 68 21 43 99 100 100 100 81 24
100 100 93 22 4 0 0 5 4 5 5 5 64 21 16 50 49 16 5 17 14 56 53 39 42 55 100 75 83 40 48 39
77 100 100 100 98 7 1 60 93 6 5 23 83 72 18 99 98 36 14 6 8 18 5 5 80 63 35 5 5 21 81 94
58 60 98 99 100 100 11 1 53 100 100 100 98 13 6 40 13 5 5 5 5 13 5 5 5 9 97 55 14 77 5 47
46 25 100 72 100 100 100 97 38 70 100 68 28 11 49 33 46 11 14 6 5 5 5 19 57 70 63 52 24 13 34 99
89 7 100 100 59 97 100 100 100 100 100 100 94 98 100 100 100 100 100 88 97 100 65 89 99 84 87 10 5 5 10 47
100 82 7 96 98 91 100 100 100 100 93 38 37 81 98 100 100 100 100 97 85 100 100 84 100 100 81 7 6 5 5 6
100 89 9 79 99 100 100 100 100 100 100 44 11 37 12 37 90 56 9 35 30 18 43 46 100 100 100 100 31 12 58 42
100 100 100 100 10 31 100 100 100 100 100 100 96 9 47 100 100 58 6 6 19 9 7 8 100 85 82 96 100 99 89 99
100 8 98 98 76 100 100 100 100 100 100 100 100 36 100 100 100 100 91 9 5 5 92 34 21 87 100 100 100 100 95 100